Time,TemperatureF,DewpointF,PressureIn,WindDirection,WindDirectionDegrees,WindSpeedMPH,WindSpeedGustMPH,Humidity,HourlyPrecipIn,Conditions,Clouds,dailyrainin,SoftwareType,DateUTC
2013-08-09 00:01:00,71.0,71.0,29.96,SSW,207,0.0,0.0,100,0.22,,,0.72,,2013-08-09 04:01:00,
2013-08-09 00:12:00,71.0,71.0,29.95,SSW,207,0.0,0.0,100,0.22,,,0.72,,2013-08-09 04:12:00,
2013-08-09 00:22:00,71.0,71.0,29.95,SSW,207,0.0,0.0,100,0.22,,,0.72,,2013-08-09 04:22:00,
2013-08-09 00:33:00,71.0,71.0,29.95,SSW,207,0.0,0.0,100,0.17,,,0.45,,2013-08-09 04:33:00,
2013-08-09 00:43:00,71.0,71.0,29.95,SSW,207,0.0,0.0,100,0.17,,,0.45,,2013-08-09 04:43:00,
2013-08-09 00:53:00,71.0,71.0,29.95,SSW,207,0.0,0.0,100,0.17,,,0.45,,2013-08-09 04:53:00,
2013-08-09 01:02:00,71.0,71.0,29.94,SSW,207,0.0,0.0,100,0.17,,,0.45,,2013-08-09 05:02:00,
2013-08-09 01:43:00,71.0,71.0,29.94,SSW,207,0.0,0.0,100,0.00,,,0.45,,2013-08-09 05:43:00,
2013-08-09 01:52:00,71.0,71.0,29.94,SSW,207,0.0,0.0,100,0.00,,,0.45,,2013-08-09 05:52:00,
2013-08-09 02:01:00,71.0,71.0,29.93,SSW,207,0.0,0.0,100,0.00,,,0.45,,2013-08-09 06:01:00,
2013-08-09 02:11:00,71.0,71.0,29.93,SSW,207,0.0,0.0,100,0.00,,,0.45,,2013-08-09 06:11:00,
2013-08-09 02:32:00,71.0,71.0,29.93,SSW,207,0.0,0.0,100,0.00,,,0.45,,2013-08-09 06:32:00,
2013-08-09 02:43:00,71.0,71.0,29.93,SSW,207,0.0,0.0,100,0.00,,,0.45,,2013-08-09 06:43:00,
2013-08-09 02:52:00,71.0,71.0,29.93,SSW,207,0.0,0.0,100,0.00,,,0.45,,2013-08-09 06:52:00,
2013-08-09 03:01:00,71.0,71.0,29.93,SSW,207,0.0,0.0,100,0.00,,,0.45,,2013-08-09 07:01:00,
2013-08-09 03:33:00,71.0,71.0,29.94,SSW,207,0.0,0.0,100,0.00,,,0.45,,2013-08-09 07:33:00,
2013-08-09 03:43:00,71.0,71.0,29.94,SSW,207,0.0,0.0,100,0.00,,,0.45,,2013-08-09 07:43:00,
2013-08-09 03:53:00,71.0,71.0,29.93,SSW,207,0.0,0.0,100,0.00,,,0.45,,2013-08-09 07:53:00,
2013-08-09 04:02:00,71.0,71.0,29.93,SSW,207,0.0,0.0,100,0.00,,,0.45,,2013-08-09 08:02:00,
2013-08-09 04:12:00,71.0,71.0,29.93,SSW,207,0.0,0.0,100,0.00,,,0.45,,2013-08-09 08:12:00,
2013-08-09 04:22:00,71.0,71.0,29.94,SSW,207,0.0,0.0,100,0.00,,,0.45,,2013-08-09 08:22:00,
2013-08-09 04:32:00,71.0,71.0,29.94,SSW,207,0.0,0.0,100,0.00,,,0.45,,2013-08-09 08:32:00,
2013-08-09 04:43:00,71.0,71.0,29.94,SSW,207,0.0,0.0,100,0.00,,,0.45,,2013-08-09 08:43:00,
2013-08-09 04:53:00,71.0,71.0,29.94,SSW,207,0.0,0.0,100,0.00,,,0.45,,2013-08-09 08:53:00,
2013-08-09 05:02:00,71.0,71.0,29.94,SSW,207,0.0,0.0,100,0.00,,,0.45,,2013-08-09 09:02:00,
2013-08-09 05:32:00,71.0,71.0,29.93,SSW,207,0.0,0.0,100,0.00,,,0.45,,2013-08-09 09:32:00,
2013-08-09 05:43:00,71.0,71.0,29.93,SSW,207,0.0,0.0,100,0.00,,,0.45,,2013-08-09 09:43:00,
2013-08-09 05:52:00,71.0,71.0,29.93,SSW,207,0.0,0.0,100,0.00,,,0.45,,2013-08-09 09:52:00,
2013-08-09 06:01:00,71.0,71.0,29.93,SSW,207,0.0,0.0,100,0.00,,,0.45,,2013-08-09 10:01:00,
2013-08-09 06:12:00,71.0,71.0,29.93,SSW,207,0.0,0.0,100,0.00,,,0.45,,2013-08-09 10:12:00,
2013-08-09 06:32:00,71.0,71.0,29.93,SSW,207,0.0,0.0,100,0.00,,,0.45,,2013-08-09 10:32:00,
2013-08-09 06:43:00,71.0,71.0,29.93,SSW,207,0.0,0.0,100,0.00,,,0.45,,2013-08-09 10:43:00,
2013-08-09 06:53:00,71.0,71.0,29.93,SSW,207,0.0,0.0,100,0.00,,,0.45,,2013-08-09 10:53:00,
2013-08-09 07:02:00,71.0,71.0,29.93,SSW,207,0.0,0.0,100,0.00,,,0.45,,2013-08-09 11:02:00,
2013-08-09 07:22:00,71.0,71.0,29.94,SSW,207,0.0,0.0,100,0.09,,,0.45,,2013-08-09 11:22:00,
2013-08-09 07:33:00,71.0,71.0,29.94,SSW,207,0.0,0.0,100,0.09,,,0.45,,2013-08-09 11:33:00,
2013-08-09 07:43:00,71.0,71.0,29.93,South,179,0.0,0.0,100,0.09,,,0.45,,2013-08-09 11:43:00,
2013-08-09 07:53:00,71.0,71.0,29.93,South,179,0.0,0.0,100,0.09,,,0.45,,2013-08-09 11:53:00,
2013-08-09 08:02:00,71.0,71.0,29.94,South,179,0.0,0.0,100,0.09,,,0.45,,2013-08-09 12:02:00,
2013-08-09 08:12:00,71.0,71.0,29.94,South,179,0.0,0.0,100,0.09,,,0.45,,2013-08-09 12:12:00,
2013-08-09 08:32:00,71.0,71.0,29.94,South,179,0.0,0.0,100,0.13,,,0.45,,2013-08-09 12:32:00,
2013-08-09 08:43:00,71.0,71.0,29.94,South,179,0.0,0.0,100,0.13,,,0.45,,2013-08-09 12:43:00,
2013-08-09 08:52:00,71.0,71.0,29.94,South,179,0.0,0.0,100,0.13,,,0.45,,2013-08-09 12:52:00,
2013-08-09 09:01:00,71.0,71.0,29.93,South,179,0.0,0.0,100,0.13,,,0.45,,2013-08-09 13:01:00,
2013-08-09 09:43:00,72.0,72.0,29.93,South,179,0.0,0.0,100,0.02,,,0.45,,2013-08-09 13:43:00,
2013-08-09 09:52:00,72.0,72.0,29.93,South,179,0.0,0.0,100,0.02,,,0.45,,2013-08-09 13:52:00,
2013-08-09 10:02:00,72.0,72.0,29.93,South,179,0.0,0.0,100,0.02,,,0.45,,2013-08-09 14:02:00,
2013-08-09 10:22:00,72.0,72.0,29.93,South,179,0.0,0.0,100,0.02,,,0.45,,2013-08-09 14:22:00,
2013-08-09 10:43:00,73.0,73.0,29.94,South,179,0.0,0.0,100,0.19,,,0.45,,2013-08-09 14:43:00,
2013-08-09 10:53:00,73.0,73.0,29.94,South,179,0.0,0.0,100,0.19,,,0.45,,2013-08-09 14:53:00,
2013-08-09 11:02:00,73.0,73.0,29.94,South,179,0.0,0.0,100,0.19,,,0.45,,2013-08-09 15:02:00,
2013-08-09 11:12:00,73.0,73.0,29.94,South,179,0.0,0.0,100,0.19,,,0.45,,2013-08-09 15:12:00,
2013-08-09 11:22:00,73.0,73.0,29.94,South,179,0.0,0.0,100,0.00,,,0.45,,2013-08-09 15:22:00,
2013-08-09 11:44:00,71.0,71.0,29.94,West,264,0.0,0.0,100,0.00,,,0.45,,2013-08-09 15:44:00,
2013-08-09 11:53:00,71.0,71.0,29.94,West,280,0.0,0.0,100,0.00,,,0.45,,2013-08-09 15:53:00,
2013-08-09 12:02:00,71.0,71.0,29.94,West,280,0.0,0.0,100,0.00,,,0.45,,2013-08-09 16:02:00,
2013-08-09 12:22:00,71.0,71.0,29.94,SSE,159,0.0,0.0,100,0.87,,,0.45,,2013-08-09 16:22:00,
2013-08-09 12:32:00,74.0,74.0,29.95,North,359,0.0,0.0,100,0.87,,,0.45,,2013-08-09 16:32:00,
2013-08-09 12:43:00,74.0,74.0,29.94,North,359,0.0,0.0,100,0.87,,,0.45,,2013-08-09 16:43:00,
2013-08-09 13:22:00,74.0,74.0,29.95,NNW,329,0.0,0.0,100,0.00,,,0.45,,2013-08-09 17:22:00,
2013-08-09 13:33:00,74.0,74.0,29.95,SE,125,0.0,0.0,100,0.00,,,0.45,,2013-08-09 17:33:00,
2013-08-09 14:43:00,78.0,78.0,29.94,SW,217,3.0,0.0,99,0.00,,,0.45,,2013-08-09 18:43:00,
2013-08-09 14:53:00,79.0,73.0,29.95,SSW,207,1.0,0.0,83,0.00,,,0.45,,2013-08-09 18:53:00,
2013-08-09 15:02:00,79.0,73.0,29.94,East,97,3.0,3.0,82,0.00,,,0.45,,2013-08-09 19:02:00,
2013-08-09 15:43:00,75.0,73.0,29.95,North,359,0.0,0.0,93,0.00,,,0.45,,2013-08-09 19:43:00,
2013-08-09 15:52:00,75.0,73.0,29.94,NW,326,4.0,4.0,95,0.00,,,0.45,,2013-08-09 19:52:00,
2013-08-09 16:02:00,75.0,73.0,29.94,NW,326,4.0,4.0,95,0.00,,,0.45,,2013-08-09 20:02:00,
2013-08-09 16:22:00,73.0,72.0,29.94,North,359,5.0,6.0,97,0.00,,,0.45,,2013-08-09 20:22:00,
2013-08-09 16:43:00,73.0,73.0,29.95,NW,319,2.0,0.0,100,0.14,,,0.45,,2013-08-09 20:43:00,
2013-08-09 16:52:00,73.0,73.0,29.95,NW,319,2.0,0.0,100,0.14,,,0.45,,2013-08-09 20:52:00,
2013-08-09 17:33:00,73.0,73.0,29.96,WNW,300,0.0,0.0,100,0.20,,,0.45,,2013-08-09 21:33:00,
2013-08-09 17:52:00,74.0,74.0,29.96,WNW,300,0.0,0.0,100,0.20,,,0.45,,2013-08-09 21:52:00,
2013-08-09 18:02:00,74.0,74.0,29.96,WNW,300,0.0,0.0,100,0.20,,,0.45,,2013-08-09 22:02:00,
2013-08-09 18:42:00,74.0,73.0,29.96,WNW,301,0.0,0.0,97,0.00,,,0.45,,2013-08-09 22:42:00,
2013-08-09 18:52:00,74.0,73.0,29.97,WNW,301,0.0,0.0,97,0.00,,,0.45,,2013-08-09 22:52:00,
2013-08-09 19:02:00,74.0,73.0,29.97,WNW,301,0.0,0.0,97,0.00,,,0.45,,2013-08-09 23:02:00,
2013-08-09 19:22:00,74.0,74.0,29.97,WNW,301,0.0,0.0,99,0.00,,,0.45,,2013-08-09 23:22:00,
2013-08-09 19:32:00,74.0,74.0,29.97,WNW,301,0.0,0.0,99,0.00,,,0.45,,2013-08-09 23:32:00,
2013-08-09 19:52:00,74.0,74.0,29.98,WNW,301,0.0,0.0,100,0.00,,,0.45,,2013-08-09 23:52:00,
2013-08-09 20:01:00,73.0,73.0,29.98,WNW,301,0.0,0.0,100,0.00,,,0.45,,2013-08-10 00:01:00,
2013-08-09 20:33:00,73.0,73.0,29.98,WNW,301,0.0,0.0,100,0.00,,,0.45,,2013-08-10 00:33:00,
2013-08-09 20:43:00,73.0,73.0,29.98,WNW,301,0.0,0.0,100,0.00,,,0.45,,2013-08-10 00:43:00,
2013-08-09 20:52:00,73.0,73.0,29.99,WNW,301,0.0,0.0,100,0.00,,,0.45,,2013-08-10 00:52:00,
2013-08-09 21:02:00,73.0,73.0,29.99,WNW,301,0.0,0.0,100,0.00,,,0.45,,2013-08-10 01:02:00,
2013-08-09 21:11:00,72.0,72.0,29.99,WNW,301,0.0,0.0,100,0.00,,,0.45,,2013-08-10 01:11:00,
2013-08-09 21:22:00,72.0,72.0,29.99,WNW,301,0.0,0.0,100,0.00,,,0.45,,2013-08-10 01:22:00,
2013-08-09 21:32:00,72.0,72.0,29.99,WNW,301,0.0,0.0,100,0.00,,,0.45,,2013-08-10 01:32:00,
2013-08-09 21:42:00,72.0,72.0,29.99,WNW,301,0.0,0.0,100,0.00,,,0.45,,2013-08-10 01:42:00,
2013-08-09 21:52:00,72.0,72.0,30.01,WNW,301,0.0,0.0,100,0.00,,,0.45,,2013-08-10 01:52:00,
2013-08-09 22:03:00,72.0,72.0,30.01,WNW,301,0.0,0.0,100,0.00,,,0.45,,2013-08-10 02:03:00,
2013-08-09 22:11:00,72.0,72.0,30.01,WNW,301,0.0,0.0,100,0.00,,,0.45,,2013-08-10 02:11:00,
2013-08-09 22:21:00,72.0,72.0,30.01,WNW,301,0.0,0.0,100,0.00,,,0.45,,2013-08-10 02:21:00,
2013-08-09 22:32:00,72.0,72.0,30.01,WNW,301,0.0,0.0,100,0.00,,,0.45,,2013-08-10 02:32:00,
2013-08-09 22:42:00,72.0,72.0,30.01,WNW,301,0.0,0.0,100,0.00,,,0.45,,2013-08-10 02:42:00,
2013-08-09 22:52:00,71.0,71.0,30.02,WNW,301,0.0,0.0,100,0.00,,,0.45,,2013-08-10 02:52:00,
2013-08-09 23:01:00,70.0,70.0,30.02,WNW,301,0.0,0.0,100,0.00,,,0.45,,2013-08-10 03:01:00,
2013-08-09 23:11:00,70.0,70.0,30.02,WNW,301,0.0,0.0,100,0.00,,,0.45,,2013-08-10 03:11:00,
2013-08-09 23:22:00,70.0,70.0,30.02,WNW,301,0.0,0.0,100,0.00,,,0.45,,2013-08-10 03:22:00,
2013-08-09 23:32:00,70.0,70.0,30.02,WNW,301,0.0,0.0,100,0.00,,,0.45,,2013-08-10 03:32:00,
2013-08-09 23:42:00,70.0,70.0,30.02,WNW,301,0.0,0.0,100,0.00,,,0.45,,2013-08-10 03:42:00,
2013-08-09 23:52:00,70.0,70.0,30.02,WNW,301,0.0,0.0,100,0.00,,,0.45,,2013-08-10 03:52:00,